Photometre #79[Standard_N] Nicosia AOT

File : 20200923_79.hum

23/09/2020,04:19:43,TEMP=21.4,BA=5.60,STAT.A=Abs.,ExtBa=15.25
23/09/2020,04:22:51,TEMP=21.7,BA=5.52,STAT.A=Abs.,ExtBa=15.19
23/09/2020,04:26:31,TEMP=21.9,BA=5.52,STAT.A=Abs.,ExtBa=15.22
23/09/2020,04:30:53,TEMP=22.0,BA=5.60,STAT.A=Abs.,ExtBa=15.25
23/09/2020,04:36:07,TEMP=22.3,BA=5.60,STAT.A=Abs.,ExtBa=15.26
23/09/2020,04:42:34,TEMP=22.7,BA=5.60,STAT.A=Abs.,ExtBa=15.25
23/09/2020,04:50:42,TEMP=23.3,BA=5.60,STAT.B=Abs.,ExtBa=15.26
23/09/2020,04:57:28,TEMP=23.9,BA=5.60,STAT.A=Abs.,ExtBa=14.43
23/09/2020,04:59:10,TEMP=24.1,BA=5.60,STAT.A=Abs.,ExtBa=14.52
23/09/2020,05:03:49,TEMP=24.0,BA=5.48,STAT.A=Abs.,ExtBa=14.81
23/09/2020,05:09:22,TEMP=24.5,BA=5.48,STAT.A=Abs.,ExtBa=15.07
23/09/2020,05:15:44,TEMP=25.1,BA=5.48,STAT.C=Abs.,ExtBa=15.19
23/09/2020,05:26:56,TEMP=26.3,BA=5.48,STAT.A=Abs.,ExtBa=14.19
23/09/2020,05:31:45,TEMP=26.1,BA=5.60,STAT.A=Abs.,ExtBa=14.59
23/09/2020,05:42:03,TEMP=27.1,BA=5.60,STAT.A=Abs.,ExtBa=15.11
23/09/2020,05:54:37,TEMP=28.3,BA=5.60,STAT.A=Abs.,ExtBa=15.28
23/09/2020,06:10:20,TEMP=28.5,BA=5.60,STAT.B=Abs.,ExtBa=15.28
23/09/2020,06:24:10,TEMP=29.0,BA=5.60,STAT.D=Abs.,ExtBa=15.12
23/09/2020,06:39:12,TEMP=30.1,BA=5.60,STAT.F,ExtBa=15.25
23/09/2020,06:54:10,TEMP=30.4,BA=5.52,STAT.D=Abs.,ExtBa=14.86
23/09/2020,07:09:10,TEMP=31.0,BA=5.56,STAT.D=Abs.,ExtBa=15.22
23/09/2020,07:24:10,TEMP=32.3,BA=5.52,STAT.D=Abs.,ExtBa=15.21
23/09/2020,07:39:12,TEMP=33.1,BA=5.52,STAT.F,ExtBa=15.20
23/09/2020,07:46:39,TEMP=33.3,BA=5.44,STAT.b=Abs.
23/09/2020,07:54:28,TEMP=33.1,BA=5.48,STAT.D=Abs.,ExtBa=15.13
23/09/2020,08:09:11,TEMP=33.6,BA=5.48,STAT.D=Abs.,ExtBa=15.21
23/09/2020,08:24:11,TEMP=34.3,BA=5.48,STAT.D=Abs.,ExtBa=15.18
23/09/2020,08:39:12,TEMP=34.2,BA=5.48,STAT.F,ExtBa=15.17
23/09/2020,08:54:11,TEMP=34.9,BA=5.44,STAT.D=Abs.,ExtBa=14.94
23/09/2020,09:09:11,TEMP=35.3,BA=5.44,STAT.D=Abs.,ExtBa=15.17
23/09/2020,09:24:11,TEMP=34.9,BA=5.44,STAT.D=Abs.,ExtBa=15.17
23/09/2020,09:39:12,TEMP=35.5,BA=5.44,STAT.F,ExtBa=15.16
23/09/2020,09:54:11,TEMP=36.0,BA=5.44,STAT.D=Abs.,ExtBa=14.91
23/09/2020,10:09:11,TEMP=35.6,BA=5.44,STAT.D=Abs.,ExtBa=15.15
23/09/2020,10:24:11,TEMP=36.3,BA=5.44,STAT.D=Abs.,ExtBa=15.14
23/09/2020,10:39:12,TEMP=36.0,BA=5.40,STAT.F,ExtBa=15.13
23/09/2020,10:54:11,TEMP=36.0,BA=5.40,STAT.D=Abs.,ExtBa=14.84
23/09/2020,11:09:11,TEMP=36.0,BA=5.40,STAT.D=Abs.,ExtBa=15.12
23/09/2020,11:24:11,TEMP=36.5,BA=5.40,STAT.D=Abs.,ExtBa=15.12
23/09/2020,11:39:12,TEMP=34.6,BA=5.40,STAT.F,ExtBa=15.12
23/09/2020,11:54:10,TEMP=33.3,BA=5.40,STAT.D=Abs.,ExtBa=14.83
23/09/2020,12:09:10,TEMP=33.1,BA=5.44,STAT.D=Abs.,ExtBa=15.14
23/09/2020,12:24:10,TEMP=33.1,BA=5.48,STAT.D=Abs.,ExtBa=15.13
23/09/2020,12:39:12,TEMP=32.9,BA=5.48,STAT.F,ExtBa=15.14
23/09/2020,12:54:03,TEMP=32.8,BA=5.44,STAT.b=Abs.
23/09/2020,13:08:02,TEMP=32.5,BA=5.48,STAT.B=Abs.,ExtBa=15.17
23/09/2020,13:23:45,TEMP=31.8,BA=5.48,STAT.A=Abs.,ExtBa=15.13
23/09/2020,13:36:19,TEMP=31.8,BA=5.52,STAT.A=Abs.,ExtBa=15.16
23/09/2020,13:46:37,TEMP=31.4,BA=5.52,STAT.A=Abs.,ExtBa=15.16
23/09/2020,13:55:16,TEMP=30.8,BA=5.52,STAT.A=Abs.,ExtBa=15.16
23/09/2020,14:02:38,TEMP=29.9,BA=5.52,STAT.C=Abs.,ExtBa=15.17
23/09/2020,14:09:00,TEMP=29.5,BA=5.52,STAT.A=Abs.,ExtBa=15.16
23/09/2020,14:14:33,TEMP=29.4,BA=5.40,STAT.A=Abs.,ExtBa=15.14
23/09/2020,14:19:26,TEMP=29.1,BA=5.40,STAT.A=Abs.,ExtBa=15.15
23/09/2020,14:23:47,TEMP=29.1,BA=5.40,STAT.A=Abs.,ExtBa=15.09
23/09/2020,14:27:40,TEMP=29.1,BA=5.40,STAT.B=Abs.,ExtBa=15.10
23/09/2020,14:35:48,TEMP=29.2,BA=5.40,STAT.A=Abs.,ExtBa=14.56
23/09/2020,14:42:15,TEMP=29.1,BA=5.56,STAT.A=Abs.,ExtBa=14.95
23/09/2020,14:47:29,TEMP=29.0,BA=5.56,STAT.A=Abs.,ExtBa=15.09
23/09/2020,14:51:48,TEMP=29.0,BA=5.56,STAT.A=Abs.,ExtBa=15.10
23/09/2020,14:55:28,TEMP=28.8,BA=5.56,STAT.A=Abs.,ExtBa=15.09
23/09/2020,14:58:37,TEMP=28.8,BA=5.56,STAT.A=Abs.,ExtBa=15.09